Miscellaneous Local Product
Issued by NWS Hastings, NE

Home | Current Version | Previous Version | Graphics & Text | Print | Product List | Glossary On
Versions: 1 2 3 4 5 6 7 8 9 10 11 12 13 14 15 16 17 18 19 20 21 22 23 24 25 26 27 28 29 30 31 32 33 34 35 36 37 38 39 40 41 42 43 44 45 46 47 48 49 50
000
AXUS43 KGID 202002
MISGRI

GID CWA HOURLY WEATHER ROUNDUP
NATIONAL WEATHER SERVICE HASTINGS NE
300 PM CDT SUN APR 20 2014

NOTE: "FAIR" INDICATES FEW OR NO CLOUDS BELOW 12,000 FEET WITH NO
SIGNIFICANT WEATHER AND/OR OBSTRUCTIONS TO VISIBILITY.

...SOUTH CENTRAL NEBRASKA...

CITY           SKY/WX    TMP DP  RH WIND       PRES   REMARKS
GRAND ISLAND   LGT RAIN  71  54  54 SW15      29.96S
HASTINGS       CLOUDY    76  50  40 SW9G17    29.96F
KEARNEY        CLOUDY    73  54  49 S15       29.96F
ORD            PTSUNNY   74  49  41 SW12      29.93F
YORK           CLOUDY    73  54  49 S15       29.97R
AURORA         CLOUDY    73  54  52 SW9       29.97S
LEXINGTON      PTSUNNY   78  50  38 SW10G16   29.95F
HOLDREGE       CLOUDY    72  52  48 S13       29.96F
HEBRON         PTSUNNY   80  51  36 SW20G26   29.96S

...NEBRASKA PANHANDLE...

CITY           SKY/WX    TMP DP  RH WIND       PRES   REMARKS
CHADRON        SUNNY     76  38  25 NW8       29.92F
ALLIANCE       MOSUNNY   76  33  21 W9G17     29.94F
SCOTTSBLUFF    SUNNY     78  32  18 NW6       29.96F
SIDNEY         SUNNY     74  35  24 S6        29.98F

...WESTERN AND NORTH CENTRAL NEBRASKA...

CITY           SKY/WX    TMP DP  RH WIND       PRES   REMARKS
VALENTINE      SUNNY     78  41  26 S12G22    29.90F
AINSWORTH      SUNNY     78  43  27 S6        29.93F
ONEILL         MOSUNNY   77  42  28 SE9       29.93F THUNDER
BROKEN BOW     CLOUDY    68  54  60 SW7       29.97S
IMPERIAL       PTSUNNY   71  48  43 VRB3      29.97F
NORTH PLATTE   PTSUNNY   73  50  44 E7        29.95F
MCCOOK         PTSUNNY   75  52  44 CALM      29.94F

...EASTERN NEBRASKA...

CITY           SKY/WX    TMP DP  RH WIND       PRES   REMARKS
NORFOLK        PTSUNNY   80  51  36 S8        29.91F
SO SIOUX CITY  PTSUNNY   80  53  39 SE10G18   29.91F
TEKAMAH        MOSUNNY   85  50  29 S20       29.91F
COLUMBUS       PTSUNNY   81  52  36 S17       29.93F
ALBION         PTSUNNY   80  48  32 SW6       29.92F THUNDER
OMAHA EPPLEY   CLOUDY    81  50  33 S12       29.93F
OFFUTT AFB     PTSUNNY   83  52  33 SW9G17    29.93F
MILLARD        PTSUNNY   80  51  37 S6        29.94F
LINCOLN        CLOUDY    81  52  36 SW12      29.95F
NEBRASKA CITY  PTSUNNY   81  51  34 S15       29.96F
BEATRICE       CLOUDY    81  52  36 S15       29.96S
FALLS CITY     PTSUNNY   83  54  36 S17G24    29.96F

...NORTHERN KANSAS...

CITY           SKY/WX    TMP DP  RH WIND       PRES   REMARKS
GOODLAND       CLOUDY    70  49  47 S6        29.98F
HILL CITY      PTSUNNY   78  49  35 S13       29.94F
PHILLIPSBURG   MOSUNNY   81  48  32 S15G22    29.94F
SMITH CENTER   MOSUNNY   79  52  38 S14G22    29.96S
BELOIT         CLOUDY    72  57  60 S6        29.98S
HAYS           CLOUDY    73  54  49 S18G24    29.97F
RUSSELL        CLOUDY    70  55  59 S16       29.97F
CONCORDIA      PTSUNNY   74  51  44 SW17G29   29.99R
SALINA         CLOUDY    69  56  62 S16       30.02S
TOPEKA         CLOUDY    77  54  44 S13       30.03S



USA.gov is the U.S. government's official web portal to all federal, state and local government web resources and services.